Ciudad Obregón International Airport

Jump to: basic info | weather | frequencies | runways | comments

Related pages: nearby airports | nearby navaids | notams | map

Basic information (top)

Codes: CEN MMCN
Location: lon 27.392599, lat -109.833000, elev 243 ft / 74 m msl
Status: medium_airport
Scheduled airline service: yes
Links: Wikipedia Mobile

Weather (top)

Current conditions (rec'd 2014/07/29 10:52Z):

MMCN 291052Z 20003KT 6SM RA BKN025 26/23 A2992 RMK 8/400 RTS

Airport forecast (rec'd 2014/07/28 18:11Z):

TAF MMCN 281704Z 2818/2918 32010KT P6SM SCT020 SCT120 BKN250 
     FM290100 02010KT P6SM SCT030CB BKN120 BKN230 
     FM290500 03010KT P6SM OVC020CB 
      TEMPO 2907/2911 5SM TSRA 
     FM291500 04010KT P6SM SCT020 OVC080

Frequencies (top)

Verify before use: may be inaccurate or out of date.

APP: 121.3 MHz (APP)
ATIS: 127.6 MHz (ATIS)
TWR: 118.3 MHz (OBREGON TWR)

Runways (top)

13/31: 7,546 x 148 ft (2,300 x 45 m) — paved — lighted

Latest comments (top)

No comments yet for Ciudad Obregón International Airport

More... (top)

See also NOTAMs and nearby airports and navaids, or visit the Ciudad Obregón International Airport page at the main OurAirports website..